STARLINK-1665, 46356

Orbit data source: Space-Track

STARLINK-1665, 46356 is a payload satellite owned by SpaceX/Seattle (US) in LEO that was launched on Thu, 03 Sep 2020 UTC via an FALCON 9 launch vehicle from the Air Force Eastern Test Range (AFETR). Payload-class satellites include a variety of spacecraft equipped with specific instruments for various scientific and technological missions. These include communications satellites like Starlink; space stations such as the ISS; scientific satellites like the Hubble; Earth observation satellites from companies like Planet Labs, Umbra, and HawkEye 360; GPS; miniature CubeSats for education and research; and military/defense satellites.

Loading next visibility...
Identifier
46356, 2020-062AH
Orbit
LEO
Country
Flag of USUS
Related business
Manufacturer
SpaceX/Seattle
Mission
Partially operational Commercial Communications
Bus & Motor
STARLINK, Unknown motor
Mass
260 kg wet, ~248 kg dry
Launch date (UTC)
2020-09-03 (5 years ago)
Launch vehicle
FALCON 9
Launch site
Air Force Eastern Test Range (AFETR)
Object type
Payload
Rocket body
Debris
Shape & HBR
Box + 1 Pan, 10.1 m
Radar Cross Section
13.562 m², Large (>1 m²)

Expand to show TLE details & history
Last TLE update: 5 hours ago

TLE from 5 hours ago
0 STARLINK-1665
1 46356U 20062AH  26037.00002315  .00177674  00000-0  25336-2 0  9996
2 46356  53.0462 131.0577 0006248 211.4134 272.2986 15.55185303  5913
Epoch: 2026-02-06T00:00Z
TLE epoch observation values (Epoch: 2026-02-06T00:00:02.000Z)
Latitude
41.84042°
Longitude
132.85186°
Altitude
405.413 km
Speed
7.673 km/s
True Right ascension
17h 56m 01s
True Declination
41° 39' 38"
Sunlit
Object was in daylight at epoch
Visualization orbit readout
Latitude
Unknown
Longitude
Unknown
Altitude
Unknown
Speed
Unknown
Apparent Right ascension
Unknown
Apparent Declination
Unknown
Sunlit
N/A
Visualization observer readout
Local Sidereal Time
06:54:13
Azimuth
Unknown
Elevation
Unknown
Doppler factor
Unknown
Orbital elements
Apogee altitude
406.128 km
Perigee altitude
397.656 km
Semi-major axis
6,780.029 km
Eccentricity
0.00062
Inclination
53.0462°
RAAN
131.0577°
Arg. of periapsis
211.4134°
True anomaly
272.22706°
Mean anomaly
272.2986°
Eccentric anomaly
272.26283°
Mean motion
3.88773 °/min
Orbital period
92.6 mins
BSTAR
0.0025336
Loading maneuver chart data...
Computing Atmospheric mass density...
Loading historical data...
Loading historical data...
Loading historical data...
Loading historical data...
Loading historical data...
Loading historical data...
Loading historical data...

Documentation

Showing up to 5 results
|